Location: Sternwarte ZA, Rosenfeld-Brittheim
(48.2889°N, 8.6789°E)
Time: 21:28:18
(UTC+02:00)

ISS - Pass Details

Date: 22 May 2017
Orbit: 402 x 409 km, 51.6° (Epoch: 25 May)

Event Time Altitude Azimuth Distance (km) Brightness Sun altitude
Exits shadow 02:06:39 21° 287° (WNW) 975 -1.9 -20.6°
Maximum altitude 02:08:32 47° 353° (N) 552 -2.8 -20.5°
Drops below altitude 10° 02:11:44 10° 69° (ENE) 1,466 -0.6 -20.4°
Sets 02:13:52 0° 76° (ENE) 2,325 0.4 -20.3°
